Terug naar catalogus

CZ-6A DEB

ActiefSSO
NORAD 54606·DEBRIS·🇨🇳 China

Gelanceerd Nov 11, 2022 vanaf Taiyuan Satellite Launch Center

Loading…

Volgende Passages (komende 24 uur)

TLE

VersSource: Space-Track

Epoch: Sep 14, 2026, 12:37 UTC

1 54606U 22151NG  26257.52588652  .00004364  00000-0  14894-2 0  9990
2 54606  98.7910 285.0335 0058330  52.8502 307.7991 14.35948839198765

Volg CZ-6A DEB in realtime met AllMySat

Download on the App Store